When you browse on this site, cookies collect data to enhance your experience and personalize the content and advertising you see.
Visit our Privacy Policy to learn more. By continuing to use the site, you agree to this use of cookies and data.
  • In United Kingdom
  • List of Countries
  • For 7 days
  • Water Temperature
  • Weather Map
  • Weather Widgets
  • user-avatar
    Login

    Hourly Weather Wien

    Today, 29 February, Saturday

    Time Temperature Precipitation Wind Pressure Humidity
    00:00 +2°C° 0 mm 1 mps 745 mmHg 72%
    01:00 +2°C° 0 mm 1 mps 745 mmHg 72%
    02:00 +1°C° 0 mm 2 mps 744 mmHg 68%
    03:00 0°C° 0 mm 3 mps 744 mmHg 65%
    04:00 0°C° 0 mm 4 mps 743 mmHg 62%
    05:00 0°C° 0 mm 4 mps 742 mmHg 60%
    06:00 0°C° 0 mm 4 mps 742 mmHg 58%
    07:00 0°C° 0 mm 4 mps 741 mmHg 56%
    08:00 +1°C° 0 mm 4 mps 741 mmHg 52%
    09:00 +4°C° 0 mm 4 mps 740 mmHg 49%
    10:00 +5°C° 0 mm 3 mps 740 mmHg 46%
    11:00 +7°C° 0 mm 3 mps 739 mmHg 45%
    12:00 +6°C° 0 mm 4 mps 738 mmHg 44%
    13:00 +7°C° 0 mm 4 mps 738 mmHg 42%
    14:00 +7°C° 0 mm 4 mps 737 mmHg 44%
    15:00 +8°C° 0 mm 4 mps 736 mmHg 45%
    16:00 +8°C° 0 mm 4 mps 735 mmHg 47%
    17:00 +7°C° 0 mm 4 mps 735 mmHg 50%
    18:00 +6°C° 0 mm 4 mps 735 mmHg 54%
    19:00 +5°C° 0 mm 3 mps 735 mmHg 58%
    20:00 +5°C° 0 mm 3 mps 735 mmHg 61%
    21:00 +5°C° 0 mm 2 mps 734 mmHg 64%
    22:00 +5°C° 0 mm 2 mps 734 mmHg 66%
    23:00 +4°C° 0 mm 2 mps 734 mmHg 68%

    Tomorrow, 1 March, Sunday

    Time Temperature Precipitation Wind Pressure Humidity
    00:00 +5°C° 0 mm 1 mps 734 mmHg 69%
    01:00 +5°C° 0 mm 1 mps 734 mmHg 70%
    02:00 +5°C° 0 mm 1 mps 734 mmHg 70%
    03:00 +4°C° 0 mm 1 mps 734 mmHg 71%
    04:00 +4°C° 0 mm 1 mps 734 mmHg 71%
    05:00 +4°C° 0 mm 1 mps 735 mmHg 72%
    06:00 +4°C° 0 mm 1 mps 735 mmHg 73%
    07:00 +3°C° 0 mm 2 mps 735 mmHg 73%
    08:00 +4°C° 0.3 mm 2 mps 735 mmHg 75%
    09:00 +4°C° 0.3 mm 2 mps 735 mmHg 76%
    10:00 +5°C° 0.3 mm 2 mps 735 mmHg 78%
    11:00 +6°C° 0.2 mm 1 mps 735 mmHg 78%
    12:00 +7°C° 0.2 mm 1 mps 735 mmHg 79%
    13:00 +7°C° 0.2 mm 1 mps 735 mmHg 79%
    14:00 +7°C° 0.2 mm 1 mps 735 mmHg 80%
    15:00 +8°C° 0.2 mm 1 mps 734 mmHg 81%
    16:00 +8°C° 0.2 mm 1 mps 734 mmHg 82%
    17:00 +7°C° 1.2 mm 1 mps 734 mmHg 85%
    18:00 +7°C° 1.2 mm 1 mps 734 mmHg 89%
    19:00 +6°C° 1.2 mm 1 mps 734 mmHg 92%
    20:00 +5°C° 0.4 mm 2 mps 734 mmHg 91%
    21:00 +5°C° 0.4 mm 2 mps 733 mmHg 91%
    22:00 +4°C° 0.4 mm 3 mps 733 mmHg 90%
    23:00 +5°C° 0 mm 2 mps 732 mmHg 91%

    Day after tomorrow, 2 March, Monday

    Time Temperature Precipitation Wind Pressure Humidity
    00:00 +6°C° 0 mm 1 mps 731 mmHg 92%
    01:00 +5°C° 0 mm 1 mps 731 mmHg 93%
    02:00 +6°C° 0.2 mm 1 mps 730 mmHg 94%
    03:00 +6°C° 0.2 mm 1 mps 729 mmHg 94%
    04:00 +5°C° 0.2 mm 0 mps 729 mmHg 94%
    05:00 +5°C° 0.7 mm 2 mps 729 mmHg 92%
    06:00 +4°C° 0.7 mm 3 mps 729 mmHg 90%
    07:00 +3°C° 0.7 mm 5 mps 730 mmHg 87%
    08:00 +3°C° 0.1 mm 5 mps 730 mmHg 81%
    09:00 +5°C° 0.1 mm 5 mps 730 mmHg 76%
    10:00 +5°C° 0.1 mm 6 mps 730 mmHg 70%
    11:00 +7°C° 0 mm 5 mps 731 mmHg 64%
    12:00 +8°C° 0 mm 4 mps 731 mmHg 57%
    13:00 +10°C° 0 mm 3 mps 731 mmHg 51%
    14:00 +10°C° 0 mm 3 mps 731 mmHg 51%
    15:00 +10°C° 0 mm 3 mps 731 mmHg 50%
    16:00 +10°C° 0 mm 3 mps 730 mmHg 50%
    17:00 +9°C° 0 mm 3 mps 730 mmHg 59%
    18:00 +7°C° 0 mm 4 mps 731 mmHg 68%
    19:00 +6°C° 0 mm 5 mps 731 mmHg 77%
    20:00 +6°C° 0 mm 5 mps 731 mmHg 78%
    21:00 +6°C° 0 mm 5 mps 731 mmHg 79%
    22:00 +5°C° 0 mm 4 mps 731 mmHg 80%
    23:00 +5°C° 0 mm 4 mps 730 mmHg 82%

    3 March, Tuesday

    Time Temperature Precipitation Wind Pressure Humidity
    00:00 +5°C° 0 mm 3 mps 730 mmHg 84%
    01:00 +5°C° 0 mm 3 mps 730 mmHg 86%
    02:00 +5°C° 0.1 mm 3 mps 730 mmHg 87%
    03:00 +6°C° 0.1 mm 2 mps 730 mmHg 88%
    04:00 +6°C° 0.1 mm 2 mps 730 mmHg 89%
    05:00 +6°C° 1.4 mm 2 mps 730 mmHg 90%
    06:00 +6°C° 1.4 mm 2 mps 730 mmHg 91%
    07:00 +6°C° 1.4 mm 2 mps 730 mmHg 92%
    08:00 +6°C° 1.3 mm 2 mps 731 mmHg 88%
    09:00 +5°C° 1.3 mm 3 mps 731 mmHg 84%
    10:00 +5°C° 1.3 mm 4 mps 732 mmHg 81%
    11:00 +6°C° 0.1 mm 4 mps 732 mmHg 78%
    12:00 +6°C° 0.1 mm 5 mps 732 mmHg 75%
    13:00 +7°C° 0.1 mm 5 mps 733 mmHg 72%
    14:00 +7°C° 0 mm 5 mps 733 mmHg 72%
    15:00 +7°C° 0 mm 5 mps 733 mmHg 73%
    16:00 +7°C° 0 mm 5 mps 733 mmHg 73%
    17:00 +6°C° 0.1 mm 5 mps 734 mmHg 74%
    18:00 +6°C° 0.1 mm 5 mps 734 mmHg 75%
    19:00 +6°C° 0.1 mm 5 mps 735 mmHg 75%
    20:00 +6°C° 0 mm 5 mps 735 mmHg 77%
    21:00 +5°C° 0 mm 5 mps 735 mmHg 78%
    22:00 +5°C° 0 mm 5 mps 735 mmHg 79%
    23:00 +5°C° 0 mm 5 mps 735 mmHg 79%

    4 March, Wednesday

    Time Temperature Precipitation Wind Pressure Humidity
    00:00 +4°C° 0 mm 6 mps 735 mmHg 79%
    01:00 +4°C° 0 mm 6 mps 735 mmHg 79%
    02:00 +3°C° 0.2 mm 6 mps 735 mmHg 79%
    03:00 +3°C° 0.2 mm 6 mps 735 mmHg 80%
    04:00 +3°C° 0.2 mm 6 mps 734 mmHg 80%
    05:00 +3°C° 0.3 mm 6 mps 734 mmHg 79%
    06:00 +3°C° 0.3 mm 6 mps 734 mmHg 79%
    07:00 +2°C° 0.3 mm 6 mps 734 mmHg 78%
    08:00 +3°C° 0.3 mm 6 mps 734 mmHg 77%
    09:00 +3°C° 0.3 mm 6 mps 734 mmHg 77%
    10:00 +3°C° 0.3 mm 5 mps 734 mmHg 76%
    11:00 +5°C° 0.1 mm 5 mps 734 mmHg 70%
    12:00 +6°C° 0.1 mm 5 mps 734 mmHg 65%
    13:00 +7°C° 0.1 mm 5 mps 734 mmHg 59%
    14:00 +7°C° 0 mm 5 mps 733 mmHg 58%
    15:00 +7°C° 0 mm 4 mps 733 mmHg 57%
    16:00 +7°C° 0 mm 4 mps 733 mmHg 56%
    17:00 +7°C° 0 mm 3 mps 733 mmHg 60%
    18:00 +5°C° 0 mm 3 mps 733 mmHg 65%
    19:00 +5°C° 0 mm 2 mps 734 mmHg 70%
    20:00 +5°C° 0 mm 2 mps 734 mmHg 71%
    21:00 +4°C° 0 mm 2 mps 734 mmHg 72%
    22:00 +4°C° 0 mm 2 mps 734 mmHg 74%
    23:00 +4°C° 0 mm 2 mps 734 mmHg 74%

    5 March, Thursday

    Time Temperature Precipitation Wind Pressure Humidity
    00:00 +3°C° 0 mm 2 mps 734 mmHg 74%
    01:00 +3°C° 0 mm 2 mps 734 mmHg 74%
    02:00 +3°C° 0 mm 2 mps 735 mmHg 73%
    03:00 +3°C° 0 mm 2 mps 735 mmHg 73%
    04:00 +3°C° 0 mm 2 mps 735 mmHg 73%
    05:00 +3°C° 0 mm 2 mps 735 mmHg 73%
    06:00 +2°C° 0 mm 3 mps 735 mmHg 72%
    07:00 +2°C° 0 mm 3 mps 735 mmHg 72%
    08:00 +3°C° 0 mm 3 mps 736 mmHg 68%
    09:00 +4°C° 0 mm 3 mps 736 mmHg 64%
    10:00 +5°C° 0 mm 3 mps 736 mmHg 60%
    11:00 +7°C° 0 mm 3 mps 736 mmHg 58%
    12:00 +7°C° 0 mm 3 mps 736 mmHg 56%
    13:00 +8°C° 0 mm 3 mps 736 mmHg 54%
    14:00 +8°C° 0 mm 3 mps 736 mmHg 58%
    15:00 +7°C° 0 mm 3 mps 736 mmHg 62%
    16:00 +6°C° 0 mm 4 mps 736 mmHg 66%
    17:00 +5°C° 0 mm 3 mps 736 mmHg 70%
    18:00 +5°C° 0 mm 2 mps 736 mmHg 74%
    19:00 +4°C° 0 mm 2 mps 736 mmHg 79%
    20:00 +5°C° 0 mm 1 mps 736 mmHg 79%
    21:00 +4°C° 0 mm 1 mps 736 mmHg 79%
    22:00 +4°C° 0 mm 1 mps 736 mmHg 80%
    23:00 +4°C° 0 mm 1 mps 735 mmHg 80%
    Show more